EHI
1 3 7 7 6 9 11 12 12 10 10 8 3 1 1 2 3 4 4 3 3 3 4 5 6 4 1 0 1 1 1 1 0 0 0 0 0 0 0 0 0 0 0
2 3 6 8 7 8 10 13 12 11 12 10 4 1 1 2 4 4 4 3 2 2 2 4 5 3 1 1 2 2 1 0 0 0 0 0 0 0 0 0 0 0 0
2 2 5 8 8 8 9 12 12 11 11 10 6 2 1 2 4 4 3 2 1 1 2 4 6 4 2 2 3 2 1 0 0 0 0 0 0 0 0 0 0 0 0
3 3 4 7 9 8 9 10 11 11 9 8 7 4 2 3 3 4 4 3 2 2 3 6 7 5 3 2 3 3 1 0 0 0 0 0 0 0 0 0 0 0 0
2 4 6 8 9 8 8 8 9 10 8 6 6 4 3 2 3 5 5 4 2 1 3 7 9 7 4 3 3 3 2 1 0 0 0 0 0 0 0 0 0 0 0
2 4 6 8 9 9 7 6 6 6 5 6 5 4 3 3 4 5 5 4 2 1 2 6 9 8 6 5 4 3 2 1 0 0 0 0 0 0 0 0 0 0 0
2 3 5 7 9 8 7 5 4 3 4 6 6 4 4 4 4 4 4 4 2 0 2 6 9 10 8 6 5 4 3 1 0 0 0 0 0 0 0 0 0 0 0
1 2 3 5 7 7 6 4 3 3 4 6 6 4 4 3 3 3 4 4 3 1 2 5 9 11 9 7 5 4 2 1 0 0 0 0 0 0 0 0 0 0 0
1 1 2 2 3 4 4 4 3 3 4 6 6 5 4 3 2 3 4 4 4 3 3 4 7 9 9 7 4 2 1 0 0 0 0 0 0 0 0 0 0 0 0
0 0 0 0 0 1 2 2 3 3 4 6 6 5 3 2 1 2 3 4 3 3 2 2 5 7 7 6 3 1 0 0 0 0 0 0 0 0 0 0 0 0 0
0 0 0 0 0 0 0 1 2 2 3 5 5 2 1 1 0 1 2 3 3 2 1 1 2 4 5 4 2 1 0 0 0 0 0 0 1 1 1 0 0 0 0
0 0 0 0 0 0 0 1 2 2 2 3 3 1 0 0 0 0 1 1 2 1 0 0 1 2 3 3 1 0 0 0 0 0 0 1 2 2 1 0 0 0 0
0 0 0 0 0 0 0 1 2 2 3 4 4 2 0 0 0 0 0 1 1 0 0 0 1 1 3 2 1 0 0 0 0 0 0 1 2 3 2 0 0 0 0
0 0 0 0 0 0 0 0 1 2 3 5 5 3 1 0 0 0 1 2 1 0 0 1 2 3 3 2 1 0 0 0 0 0 0 0 2 5 4 1 0 0 0
0 0 0 0 0 0 0 0 0 1 2 4 5 3 1 0 0 0 1 1 1 1 1 1 2 3 3 2 1 0 0 0 0 0 0 0 1 4 5 3 1 0 0
0 0 0 0 0 0 0 0 0 0 1 3 3 2 1 0 0 0 0 0 1 2 2 1 1 1 2 2 1 0 0 0 0 0 0 0 0 2 4 3 1 0 0
0 0 0 0 0 0 0 0 0 0 1 2 2 1 0 0 0 0 0 0 1 2 3 2 1 1 1 1 0 0 0 0 0 0 0 0 0 1 3 3 1 0 0
0 0 0 0 0 0 0 0 0 0 0 1 2 1 0 0 0 0 0 0 0 1 2 2 2 2 1 0 0 0 0 0 0 0 0 0 0 0 1 1 0 0 0
0 0 0 0 0 0 0 0 0 0 0 1 1 1 0 0 0 0 0 0 0 0 1 1 3 2 1 0 0 0 0 0 0 0 0 0 0 0 0 0 0 0 0
0 0 0 0 0 0 0 0 0 0 0 0 0 0 0 0 0 0 0 0 0 0 0 1 2 2 1 0 0 0 0 0 0 0 0 0 0 0 0 0 0 0 0
0 0 0 0 0 0 0 0 0 0 0 0 0 0 0 0 0 0 0 0 0 0 0 1 2 1 0 0 0 0 0 0 0 0 0 0 0 0 0 0 0 0 0
0 0 0 0 0 0 0 0 0 0 0 0 0 0 0 0 0 0 0 0 0 0 0 1 1 1 0 0 0 0 0 0 0 0 0 0 0 0 0 0 0 0 0
0 0 0 0 0 0 0 0 0 0 0 0 0 0 0 0 0 0 0 0 0 0 0 0 0 0 0 0 0 0 0 0 0 0 0 0 0 0 0 0 0 0 0
0 0 0 0 0 0 0 0 0 0 0 0 0 0 0 0 0 0 0 0 0 0 0 0 0 0 0 0 0 0 0 0 0 0 0 0 0 0 0 0 0 0 0
0 0 0 0 0 0 0 0 0 0 0 0 0 0 0 0 0 0 0 0 0 0 0 0 0 0 0 0 0 0 0 0 0 0 0 0 0 0 0 0 0 0 0
0 0 0 0 0 0 0 0 0 0 0 0 0 0 0 0 0 0 0 0 0 0 0 0 0 0 0 0 0 0 0 0 0 0 0 0 0 0 0 0 0 0 0
Wind_Speed
4 6 13 14 14 14 13 12 10 8 8 6 3 1 2 3 4 5 6 6 6 6 6 7 7 7 6 6 6 6 7 7 7 8 8 9 9 9 8 8 7 6 10
4 6 12 13 13 13 14 12 12 10 8 7 6 3 1 2 4 4 5 6 6 7 7 7 7 7 7 7 7 7 7 7 8 8 8 8 8 8 7 7 7 6 10
5 7 9 13 13 13 13 13 11 11 9 8 6 5 3 0 2 3 4 6 6 7 7 7 7 7 7 7 7 7 7 8 8 8 7 4 5 8 8 7 8 9 9
6 6 8 11 12 13 12 12 12 10 10 8 6 6 4 2 1 2 3 4 6 6 6 6 7 7 8 8 8 8 7 7 7 6 4 4 5 9 9 8 8 9 9
6 6 7 10 11 11 12 12 12 11 9 9 7 5 4 3 2 1 2 3 4 5 6 6 7 7 8 8 8 8 8 7 6 5 2 3 4 9 9 8 8 8 9
5 5 6 9 10 10 10 11 11 11 10 9 8 6 4 3 3 2 2 2 3 4 5 6 7 7 8 8 8 8 8 7 5 3 3 3 4 9 10 9 8 9 9
5 5 5 8 8 9 9 10 10 10 10 9 8 8 6 4 3 3 3 3 3 4 5 6 7 7 8 9 9 9 8 7 5 3 3 3 5 10 10 10 9 9 9
5 4 4 7 8 8 8 8 9 9 9 9 8 8 8 6 4 4 3 4 4 4 5 5 6 7 7 8 9 9 8 7 6 5 3 4 8 11 10 10 10 10 9
4 4 3 3 5 7 7 7 7 8 8 8 8 8 7 7 5 4 4 4 4 5 6 6 6 7 8 8 9 9 8 8 5 3 5 4 10 12 11 10 10 10 10
3 3 3 3 3 4 4 6 6 7 7 8 7 7 7 7 6 5 4 4 4 5 6 7 7 7 7 8 9 9 9 7 5 4 3 5 12 13 12 12 11 10 10
4 3 4 4 4 4 4 5 5 5 5 6 5 6 5 3 3 3 4 5 5 5 6 7 7 8 7 7 8 8 7 4 5 4 4 9 13 13 13 13 12 11 11
3 3 3 4 4 5 4 3 2 3 3 3 2 3 2 2 3 4 4 4 5 6 6 7 8 7 6 4 5 7 4 5 5 4 5 12 14 14 14 14 13 13 12
3 3 4 4 4 4 3 3 2 2 2 2 3 3 3 2 2 2 2 2 3 3 3 4 5 4 4 4 4 5 5 5 4 3 6 13 15 15 15 15 15 14 13
3 3 3 3 3 4 3 3 3 2 2 2 2 3 2 1 2 2 2 2 2 2 2 2 2 4 5 5 5 6 6 5 4 3 5 12 15 16 16 16 16 15 14
2 3 3 2 3 3 3 3 3 3 3 2 2 2 3 2 2 2 2 2 2 2 2 2 3 4 5 6 6 6 6 6 5 5 4 11 14 15 17 17 17 16 15
2 3 3 3 3 3 3 3 3 3 3 3 2 3 3 3 2 2 3 3 3 3 3 3 4 4 4 5 6 6 7 6 6 5 5 7 12 15 17 18 17 17 17
2 2 2 3 3 3 3 4 3 3 3 3 3 3 3 3 3 3 3 3 3 3 3 3 4 3 4 4 5 6 5 6 5 5 5 5 7 12 15 17 17 17 17
2 2 2 4 4 3 3 4 3 3 3 3 3 3 3 4 4 3 3 4 4 3 3 3 4 3 4 4 4 5 5 4 6 6 5 6 6 7 11 15 17 17 18
2 2 2 3 4 4 4 4 4 4 4 3 3 3 4 4 4 4 4 4 4 3 3 4 4 4 4 4 4 4 4 4 5 6 6 7 7 7 7 11 15 16 17
2 3 2 2 3 4 3 3 3 4 4 4 3 4 5 4 5 4 4 5 5 4 4 4 5 4 4 4 4 4 4 4 4 5 7 7 7 8 8 8 8 10 15
2 3 2 3 3 3 2 3 3 4 4 4 4 5 6 5 5 5 5 5 5 5 5 5 4 5 4 3 2 2 3 4 5 5 5 5 7 7 8 8 8 7 7
3 3 3 3 4 3 3 4 4 4 4 5 4 5 6 6 6 6 5 5 5 5 6 6 5 4 4 4 3 1 2 3 4 5 4 5 6 5 7 8 8 8 7
2 2 4 4 5 4 5 3 4 3 4 4 4 4 5 6 6 7 7 6 6 6 6 6 6 6 5 5 4 4 3 4 2 3 5 5 6 5 6 7 9 9 8
2 2 4 5 5 5 5 4 5 5 6 6 5 5 6 7 7 7 8 7 7 6 6 7 7 6 6 6 5 4 4 3 3 3 3 5 6 7 7 7 8 8 8
2 3 4 5 5 5 5 5 6 6 6 5 5 6 6 6 7 8 8 7 7 7 7 7 7 7 6 7 6 4 4 3 3 3 4 5 5 6 6 7 7 7 8
2 3 4 5 6 5 5 5 6 7 8 8 7 6 6 5 6 7 7 7 8 7 7 7 7 8 8 8 7 6 5 5 5 3 3 5 6 5 6 6 7 7 7
Wind_Direction
28 54 38 27 25 23 22 22 23 27 33 35 36 63 174 178 176 182 180 178 173 170 169 168 163 159 155 147 134 127 122 121 118 115 116 117 117 114 111 109 107 102 106
40 56 43 30 26 25 23 22 23 22 25 30 31 26 57 185 191 195 192 189 188 188 186 184 176 169 167 160 151 144 137 132 129 126 125 125 124 121 116 111 111 111 111
47 56 46 31 27 25 23 22 20 22 20 23 28 27 22 6 211 209 201 196 196 198 197 194 185 178 172 167 161 157 151 145 145 144 142 137 131 130 124 119 119 119 118
43 54 49 35 29 24 22 22 19 16 17 16 20 24 19 5 309 235 212 203 203 203 201 195 189 185 179 175 167 163 164 160 163 168 168 158 144 141 140 133 130 125 123
39 52 53 38 28 23 20 19 18 14 9 9 10 12 14 6 343 291 236 221 215 208 202 195 190 186 182 179 174 174 174 174 183 193 179 143 136 146 148 145 141 135 130
34 46 45 38 28 22 18 15 14 10 6 0 1 358 355 354 340 317 274 233 225 222 213 202 196 191 182 179 180 181 183 188 194 199 189 149 141 151 150 148 149 146 141
29 35 36 26 23 19 15 10 7 4 0 357 352 351 340 335 331 311 291 254 232 227 223 214 204 193 185 184 187 186 191 195 200 193 185 151 146 154 158 159 159 155 149
30 29 34 19 15 12 10 5 2 358 354 352 348 342 342 325 316 305 286 266 247 235 229 221 209 201 193 192 192 191 195 199 207 196 181 156 157 162 166 167 167 164 158
35 24 26 14 9 1 0 359 358 351 348 345 341 334 332 324 307 296 290 275 259 247 236 227 216 211 204 201 200 196 198 203 217 199 189 166 165 170 175 174 172 170 167
36 25 19 9 2 352 342 351 352 342 338 337 332 326 322 317 304 290 283 274 263 255 243 231 224 217 213 210 206 201 202 204 219 208 188 169 171 178 180 179 176 174 170
19 19 14 2 359 349 336 345 341 331 328 330 324 322 315 293 290 278 268 273 262 257 248 235 231 225 215 208 204 201 199 211 209 207 191 177 179 185 186 185 183 179 179
360 8 17 7 356 348 339 333 313 317 315 314 317 312 291 295 297 299 290 279 266 258 247 238 234 225 208 200 199 194 205 218 216 204 186 179 187 192 192 190 189 187 188
355 10 12 6 354 346 337 322 315 306 308 312 317 312 299 300 296 293 279 265 257 250 238 237 226 217 210 201 198 201 212 215 215 203 186 185 191 197 198 196 194 194 195
359 3 5 7 350 335 327 319 309 311 303 296 300 315 307 298 302 292 275 264 257 247 239 231 232 222 217 208 205 207 216 217 210 199 191 189 194 201 203 204 200 200 201
345 347 350 352 335 323 318 311 323 308 303 302 299 302 305 298 287 284 271 259 251 249 234 231 232 230 223 214 210 211 218 222 217 201 189 193 194 203 206 205 204 205 205
324 327 329 326 317 316 311 307 306 311 301 296 292 287 292 289 281 286 275 261 252 246 237 230 227 233 231 221 215 214 218 219 221 201 186 195 198 202 208 210 210 210 211
299 303 313 310 317 309 304 301 301 292 292 289 281 277 283 288 278 273 275 263 253 252 246 238 232 229 238 231 224 220 222 218 217 209 192 193 198 204 208 214 215 214 215
287 297 308 311 308 297 295 291 286 281 290 282 277 269 268 275 276 270 270 266 256 249 243 237 225 228 234 230 227 226 226 223 217 214 203 196 196 202 209 214 217 219 219
275 276 280 288 292 293 291 286 286 283 284 280 272 268 262 265 271 269 265 265 260 252 245 246 235 224 228 230 232 229 224 225 222 219 213 205 201 199 201 210 215 219 221
258 258 261 278 286 290 287 286 285 282 281 276 268 264 266 262 264 267 264 264 256 250 245 238 237 234 230 225 239 241 233 229 226 223 217 212 206 201 198 203 208 215 217
263 272 269 278 286 293 288 283 281 278 278 275 261 262 262 264 263 259 261 266 253 244 242 241 236 230 232 215 225 254 259 235 226 227 219 210 207 203 198 199 201 203 209
264 276 282 279 283 282 273 267 260 265 268 268 262 261 257 262 263 266 254 257 257 246 241 239 233 230 232 208 191 208 246 251 236 229 220 213 210 202 202 203 202 203 199
279 280 289 282 281 277 276 272 278 273 276 274 267 260 251 255 258 259 253 250 254 245 236 231 229 227 225 222 198 189 202 219 253 231 227 221 214 210 207 204 206 204 200
270 272 278 281 284 281 277 271 272 269 270 269 266 261 259 253 255 255 254 248 249 246 237 231 230 228 220 222 220 223 230 225 205 222 228 225 221 217 210 209 207 205 202
270 266 270 276 276 276 273 265 267 264 265 267 266 265 264 258 255 253 253 249 248 245 240 232 226 230 228 224 222 216 229 243 235 220 229 223 228 223 216 211 206 205 202
272 265 271 276 278 275 275 272 270 268 272 274 272 267 262 262 261 254 253 250 248 244 240 234 224 228 233 230 227 217 210 212 213 221 226 217 227 229 221 216 210 206 202